FW0268 Weather Reports


time (UTC)temp
C
wind
direction
speed
KPH
gust
KPH
rain 1hr
cm
rain 24hr
cm
rain mn
cm
humidity
%
barometer
mb
20260502160555 14 136 1.6 11.3 0.00 0.00 0.00 42 1012.0
20260502152052 12 126 1.6 8.0 0.00 0.00 0.00 45 1012.2
20260502151551 12 153 1.6 8.0 0.00 0.00 0.00 45 1012.5
20260502151049 12 152 1.6 8.0 0.00 0.00 0.00 45 1012.3
20260502150549 12 146 0.0 6.4 0.00 0.00 0.00 46 1012.4
20260502130535 10 116 0.0 4.8 0.00 0.00 0.00 53 1012.5
20260502123531 10 103 0.0 4.8 0.00 0.00 0.00 55 1012.2
20260502123030 10 107 1.6 4.8 0.00 0.00 0.00 55 1012.2
20260502122530 10 129 0.0 3.2 0.00 0.00 0.00 56 1012.2
20260502122029 10 129 0.0 4.8 0.00 0.00 0.00 56 1012.2
20260502121529 10 129 0.0 4.8 0.00 0.00 0.00 56 1012.2
20260502121029 10 128 1.6 4.8 0.00 0.00 0.00 56 1012.1
20260502120527 10 111 1.6 4.8 0.00 0.00 0.00 56 1012.1
20260502115529 10 131 1.6 4.8 0.00 0.00 0.00 55 1012.0
20260502115025 9 130 1.6 4.8 0.00 0.00 0.00 56 1012.0
20260502114524 9 130 0.0 3.2 0.00 0.00 0.00 57 1012.0
20260502114024 9 130 0.0 4.8 0.00 0.00 0.00 57 1011.9
20260502113526 9 130 0.0 4.8 0.00 0.00 0.00 56 1011.8
20260502113023 9 130 0.0 4.8 0.00 0.00 0.00 56 1011.7
20260502112521 9 130 0.0 4.8 0.00 0.00 0.00 56 1011.6
20260502112021 9 130 0.0 6.4 0.00 0.00 0.00 56 1011.8
20260502111521 9 79 1.6 4.8 0.00 0.00 0.00 58 1011.9
20260502111021 9 142 1.6 3.2 0.00 0.00 0.00 57 1011.7
20260502110520 9 142 0.0 3.2 0.00 0.00 0.00 59 1011.7
20260502110019 9 142 0.0 1.6 0.00 0.00 0.00 59 1011.7
20260502105519 9 142 0.0 1.6 0.00 0.00 0.00 60 1011.6
20260502105018 9 142 0.0 0.0 0.00 0.00 0.00 58 1011.6
20260502104518 9 142 0.0 0.0 0.00 0.00 0.00 58 1011.4
20260502104017 9 142 0.0 0.0 0.00 0.00 0.00 57 1011.7
20260502103515 9 142 0.0 1.6 0.00 0.00 0.00 57 1011.7
20260502103015 9 142 0.0 1.6 0.00 0.00 0.00 58 1011.8
20260502102515 9 142 0.0 1.6 0.00 0.00 0.00 58 1011.7
20260502102014 9 142 0.0 1.6 0.00 0.00 0.00 59 1011.7
20260502101515 9 142 0.0 0.0 0.00 0.00 0.00 57 1011.6
20260502101012 9 142 0.0 1.6 0.00 0.00 0.00 60 1011.7
20260502100512 9 142 0.0 1.6 0.00 0.00 0.00 61 1011.8
20260502091507 10 142 0.0 1.6 0.00 0.00 0.00 61 1011.6
20260502091007 10 142 0.0 1.6 0.00 0.00 0.00 60 1011.5
20260502090506 10 142 0.0 1.6 0.00 0.00 0.00 61 1011.6
20260502071055 11 155 0.0 3.2 0.00 0.00 0.00 64 1010.9
20260502070554 11 155 0.0 3.2 0.00 0.00 0.00 63 1011.1
20260502070058 11 155 0.0 3.2 0.00 0.00 0.00 63 1011.1
20260502065553 11 150 0.0 3.2 0.00 0.00 0.00 63 1011.1
20260502065052 11 150 0.0 8.0 0.00 0.00 0.00 62 1011.0
20260502064552 11 153 0.0 3.2 0.00 0.00 0.00 62 1011.1
20260502064151 11 153 0.0 8.0 0.00 0.00 0.00 61 1011.1
20260502063554 12 153 1.6 8.0 0.00 0.00 0.00 62 1011.1
20260502063153 12 154 0.0 3.2 0.00 0.00 0.00 62 1011.2
20260502062550 12 154 0.0 6.4 0.00 0.00 0.00 61 1011.2
20260502062051 12 147 0.0 8.0 0.00 0.00 0.00 60 1011.3
20260502061550 12 146 1.6 8.0 0.00 0.00 0.00 61 1011.2
20260502061048 12 142 1.6 6.4 0.00 0.00 0.00 60 1011.2
20260502060548 12 131 0.0 4.8 0.00 0.00 0.00 61 1011.3
20260502060053 12 121 0.0 3.2 0.00 0.00 0.00 60 1011.4
20260502055551 12 132 0.0 3.2 0.00 0.00 0.00 60 1011.4
20260502055047 12 132 0.0 4.8 0.00 0.00 0.00 61 1011.3
20260502054553 12 132 1.6 4.8 0.00 0.00 0.00 60 1011.2
20260502054045 12 132 0.0 4.8 0.00 0.00 0.00 60 1011.2
20260502053545 12 134 1.6 3.2 0.00 0.00 0.00 60 1011.2
20260502053045 12 147 0.0 1.6 0.00 0.00 0.00 60 1011.2
20260502052550 12 146 0.0 3.2 0.00 0.00 0.00 62 1011.2
20260502052048 12 146 0.0 3.2 0.00 0.00 0.00 61 1011.1
20260502051543 12 146 0.0 1.6 0.00 0.00 0.00 61 1011.1
20260502051042 12 146 0.0 3.2 0.00 0.00 0.00 61 1011.1
20260502050542 12 146 0.0 4.8 0.00 0.00 0.00 61 1011.2
20260502050042 13 146 0.0 4.8 0.00 0.00 0.00 62 1011.1
20260502045544 13 146 0.0 1.6 0.00 0.00 0.00 62 1011.2
20260502045041 13 146 0.0 1.6 0.00 0.00 0.00 63 1011.2
20260502044544 13 146 0.0 3.2 0.00 0.00 0.00 61 1011.2
20260502044038 13 146 0.0 3.2 0.00 0.00 0.00 61 1011.3
20260502043538 13 146 0.0 0.0 0.00 0.00 0.00 60 1011.2
20260502043043 13 146 0.0 3.2 0.00 0.00 0.00 62 1011.0
20260502042536 13 146 0.0 3.2 0.00 0.00 0.00 60 1011.0
20260502042036 13 146 0.0 1.6 0.00 0.00 0.00 60 1010.9
20260502041542 13 146 0.0 1.6 0.00 0.00 0.00 60 1011.0
20260502041034 13 146 0.0 1.6 0.00 0.00 0.00 61 1011.0
20260502040533 13 146 0.0 1.6 0.00 0.00 0.00 60 1011.0
20260502040032 14 146 0.0 0.0 0.00 0.00 0.00 61 1010.9
20260502035532 14 146 0.0 0.0 0.00 0.00 0.00 60 1010.8
20260502035031 14 146 0.0 1.6 0.00 0.00 0.00 60 1010.9
20260502034537 14 146 0.0 1.6 0.00 0.00 0.00 60 1010.9
20260502034034 14 146 0.0 1.6 0.00 0.00 0.00 59 1010.9
20260502033531 15 146 0.0 3.2 0.00 0.00 0.00 59 1010.9
20260502033032 15 146 0.0 3.2 0.00 0.00 0.00 58 1010.7
20260502032530 15 146 0.0 3.2 0.00 0.00 0.00 58 1010.6
20260502032030 15 146 0.0 3.2 0.00 0.00 0.00 57 1010.4
20260502031530 15 146 0.0 4.8 0.00 0.00 0.00 57 1010.4
20260502031031 15 146 1.6 4.8 0.00 0.00 0.00 57 1010.4
20260502030531 15 146 1.6 4.8 0.00 0.00 0.00 56 1010.4
20260502030031 15 153 0.0 8.0 0.00 0.00 0.00 57 1010.2
20260502025530 15 153 1.6 8.0 0.00 0.00 0.00 56 1010.3
20260502025029 15 128 0.0 4.8 0.00 0.00 0.00 57 1010.3
20260502024529 15 147 0.0 3.2 0.00 0.00 0.00 56 1010.3
20260502024032 15 147 0.0 4.8 0.00 0.00 0.00 57 1010.3
20260502023529 15 147 0.0 6.4 0.00 0.00 0.00 58 1010.1
20260502023029 15 141 0.0 4.8 0.00 0.00 0.00 60 1009.9
20260502022528 15 141 0.0 4.8 0.00 0.00 0.00 61 1009.9
20260502022028 15 141 0.0 3.2 0.00 0.00 0.00 62 1009.8
20260502021528 15 140 0.0 3.2 0.00 0.00 0.00 64 1009.7
20260502021028 15 81 0.0 3.2 0.00 0.00 0.00 65 1009.6
20260502020528 15 81 0.0 0.0 0.00 0.00 0.00 65 1009.0
20260502020028 15 81 0.0 0.0 0.00 0.00 0.00 65 1009.0
20260502015528 15 81 0.0 0.0 0.00 0.00 0.00 64 1008.9
20260502015027 15 81 0.0 0.0 0.00 0.00 0.00 63 1009.0
20260502014546 15 81 0.0 1.6 0.00 0.00 0.00 63 1009.0
20260502014026 15 81 0.0 1.6 0.00 0.00 0.00 62 1008.9
20260502013526 15 81 0.0 1.6 0.00 0.00 0.00 61 1008.8
20260502013028 15 81 0.0 1.6 0.00 0.00 0.00 61 1008.9
20260502012526 15 81 0.0 1.6 0.00 0.00 0.00 61 1008.7
20260502012026 15 81 0.0 1.6 0.00 0.00 0.00 60 1008.5
20260502011526 15 81 0.0 1.6 0.00 0.00 0.00 59 1008.5
20260502011026 16 81 0.0 1.6 0.00 0.00 0.00 59 1008.5
20260502010525 16 81 0.0 1.6 0.00 0.00 0.00 58 1008.4
20260502010026 16 81 0.0 0.0 0.00 0.00 0.00 58 1008.3
20260502005525 16 81 0.0 1.6 0.00 0.00 0.00 57 1008.3
20260502005026 16 81 0.0 3.2 0.00 0.00 0.00 55 1008.2
20260502004525 16 81 0.0 3.2 0.00 0.00 0.00 54 1008.0
20260502004025 16 81 0.0 3.2 0.00 0.00 0.00 54 1007.9
20260502003524 16 81 0.0 3.2 0.00 0.00 0.00 53 1008.0
20260502003025 16 84 0.0 3.2 0.00 0.00 0.00 52 1007.9
20260502002525 17 84 0.0 3.2 0.00 0.00 0.00 53 1007.9
20260502002024 17 83 0.0 3.2 0.00 0.00 0.00 52 1007.8
20260502001524 17 83 0.0 4.8 0.00 0.00 0.00 53 1007.6
20260502001024 17 82 0.0 4.8 0.00 0.00 0.00 50 1007.7
20260502000524 17 44 0.0 4.8 0.00 0.00 0.00 50 1007.6
20260502000041 17 59 0.0 4.8 0.00 0.00 0.00 50 1007.5
20260501235523 17 309 1.6 4.8 0.00 0.00 0.00 50 1007.1
20260501235023 17 258 1.6 4.8 0.00 0.00 0.00 49 1007.0
20260501234523 17 319 0.0 3.2 0.00 0.00 0.00 49 1007.0
20260501234024 17 320 0.0 3.2 0.00 0.00 0.00 49 1007.0
20260501233523 17 327 0.0 6.4 0.00 0.00 0.00 49 1007.0
20260501233023 17 338 1.6 11.3 0.00 0.00 0.00 48 1007.0
20260501232523 17 286 1.6 6.4 0.00 0.00 0.00 48 1006.9
20260501232025 18 259 1.6 6.4 0.00 0.00 0.00 47 1007.0
20260501231525 18 226 0.0 6.4 0.00 0.00 0.00 47 1007.1
20260501231022 18 238 0.0 12.9 0.00 0.00 0.00 47 1007.0
20260501230525 18 240 3.2 12.9 0.00 0.00 0.00 46 1007.0
20260501230022 18 216 3.2 12.9 0.00 0.00 0.00 46 1007.0
20260501225521 18 247 1.6 9.7 0.00 0.00 0.00 45 1007.0
20260501225021 18 165 1.6 9.7 0.00 0.00 0.00 46 1006.9
20260501224521 19 242 3.2 17.7 0.00 0.00 0.00 45 1007.0
20260501224021 19 316 1.6 17.7 0.00 0.00 0.00 45 1007.0
20260501223521 19 171 0.0 11.3 0.00 0.00 0.00 44 1007.1
20260501223021 19 250 1.6 11.3 0.00 0.00 0.00 45 1007.0
20260501222521 19 227 1.6 9.7 0.00 0.00 0.00 45 1007.0
20260501222020 19 257 0.0 8.0 0.00 0.00 0.00 46 1007.1
20260501221527 19 259 0.0 8.0 0.00 0.00 0.00 43 1007.3
20260501221019 19 305 0.0 9.7 0.00 0.00 0.00 45 1007.2
20260501220519 19 304 1.6 9.7 0.00 0.00 0.00 43 1007.2
20260501220019 19 328 0.0 3.2 0.00 0.00 0.00 45 1007.1
20260501215518 19 291 0.0 8.0 0.00 0.00 0.00 44 1007.2
20260501215018 20 290 1.6 8.0 0.00 0.00 0.00 42 1007.3
20260501214528 20 209 1.6 9.7 0.00 0.00 0.00 42 1007.5
20260501214017 20 287 0.0 8.0 0.00 0.00 0.00 45 1007.5
20260501213517 20 315 0.0 8.0 0.00 0.00 0.00 43 1007.2
20260501213016 20 235 0.0 6.4 0.00 0.00 0.00 44 1007.4
20260501212516 20 333 0.0 6.4 0.00 0.00 0.00 44 1007.5
20260501212016 20 297 1.6 6.4 0.00 0.00 0.00 43 1007.5
20260501211516 19 293 0.0 6.4 0.00 0.00 0.00 44 1007.6
20260501211016 19 294 1.6 6.4 0.00 0.00 0.00 43 1007.5
20260501210514 19 324 1.6 6.4 0.00 0.00 0.00 41 1007.6
20260501210014 20 219 1.6 11.3 0.00 0.00 0.00 41 1007.8
20260501205514 19 223 1.6 12.9 0.00 0.00 0.00 43 1007.8
20260501205014 19 251 0.0 12.9 0.00 0.00 0.00 41 1007.8
20260501204512 20 52 1.6 4.8 0.00 0.00 0.00 41 1007.9
20260501204012 20 331 0.0 8.0 0.00 0.00 0.00 43 1007.8
20260501203512 19 40 0.0 8.0 0.00 0.00 0.00 42 1007.9
20260501203012 19 279 0.0 4.8 0.00 0.00 0.00 42 1008.0
20260501202511 19 310 0.0 9.7 0.00 0.00 0.00 43 1008.1
20260501202011 19 210 0.0 9.7 0.00 0.00 0.00 42 1008.0
20260501201510 19 186 1.6 12.9 0.00 0.00 0.00 41 1008.3
20260501201010 19 88 1.6 12.9 0.00 0.00 0.00 41 1008.2
20260501200509 20 320 1.6 6.4 0.00 0.00 0.00 40 1008.3
20260501200008 20 201 1.6 8.0 0.00 0.00 0.00 40 1008.4
20260501195508 20 271 1.6 4.8 0.00 0.00 0.00 40 1008.5
20260501195007 20 321 1.6 20.9 0.00 0.00 0.00 40 1008.5
20260501194506 20 261 3.2 20.9 0.00 0.00 0.00 38 1008.8
20260501194006 21 134 3.2 9.7 0.00 0.00 0.00 36 1009.0
20260501193504 21 281 1.6 8.0 0.00 0.00 0.00 36 1009.0
20260501193010 22 325 1.6 8.0 0.00 0.00 0.00 36 1009.0
20260501192503 22 268 1.6 9.7 0.00 0.00 0.00 36 1009.2
20260501192002 22 269 0.0 8.0 0.00 0.00 0.00 37 1009.1
20260501191502 22 196 1.6 11.3 0.00 0.00 0.00 34 1009.4
20260501191001 22 340 1.6 11.3 0.00 0.00 0.00 34 1009.7
20260501190501 22 178 1.6 8.0 0.00 0.00 0.00 34 1009.7
20260501190059 22 256 0.0 4.8 0.00 0.00 0.00 35 1009.7
20260501185558 22 229 0.0 9.7 0.00 0.00 0.00 36 1009.7
20260501185056 21 160 1.6 9.7 0.00 0.00 0.00 37 1009.8
20260501184559 21 140 1.6 6.4 0.00 0.00 0.00 35 1009.8
20260501184055 21 39 1.6 8.0 0.00 0.00 0.00 34 1009.9
20260501183557 21 60 1.6 8.0 0.00 0.00 0.00 37 1010.1
20260501183056 21 141 1.6 4.8 0.00 0.00 0.00 37 1010.1
20260501182553 21 340 0.0 4.8 0.00 0.00 0.00 39 1010.1
20260501182054 21 121 1.6 8.0 0.00 0.00 0.00 37 1010.4
20260501181553 21 200 3.2 8.0 0.00 0.00 0.00 38 1010.3
20260501181052 21 287 1.6 6.4 0.00 0.00 0.00 37 1010.3
20260501180552 21 119 1.6 9.7 0.00 0.00 0.00 37 1010.5
20260501180051 21 166 0.0 16.1 0.00 0.00 0.00 37 1010.6
20260501175553 21 264 1.6 16.1 0.00 0.00 0.00 37 1010.7
20260501175050 21 294 1.6 6.4 0.00 0.00 0.00 36 1010.8
20260501174550 21 254 3.2 8.0 0.00 0.00 0.00 35 1010.7
20260501174048 21 130 0.0 6.4 0.00 0.00 0.00 38 1010.8
20260501173547 21 229 1.6 6.4 0.00 0.00 0.00 39 1010.9
20260501173046 21 245 0.0 9.7 0.00 0.00 0.00 38 1011.0
20260501172544 21 120 1.6 9.7 0.00 0.00 0.00 39 1011.0
20260501172042 20 217 1.6 6.4 0.00 0.00 0.00 41 1011.1
20260501171544 20 206 1.6 14.5 0.00 0.00 0.00 41 1011.2
20260501171040 20 252 1.6 6.4 0.00 0.00 0.00 41 1011.4
20260501170542 19 171 1.6 9.7 0.00 0.00 0.00 41 1011.5
20260501170041 19 201 1.6 6.4 0.00 0.00 0.00 40 1011.6
20260501165537 19 288 0.0 8.0 0.00 0.03 0.00 41 1011.8
20260501165035 18 220 3.2 8.0 0.00 0.03 0.00 43 1011.8
20260501164534 18 134 0.0 9.7 0.00 0.03 0.00 44 1011.7
20260501164032 18 151 1.6 9.7 0.00 0.03 0.00 42 1012.0
20260501163531 18 311 1.6 9.7 0.00 0.03 0.00 42 1012.1
20260501163037 18 340 1.6 8.0 0.00 0.03 0.00 43 1012.2
20260501162529 18 139 0.0 9.7 0.00 0.03 0.00 45 1012.2
20260501162028 17 178 1.6 6.4 0.00 0.03 0.00 44 1012.3
20260501161528 17 138 3.2 6.4 0.00 0.03 0.00 46 1012.4
20260501161025 16 64 0.0 4.8 0.00 0.03 0.00 47 1012.3